• In Uzbekistan
  • List of Countries
  • For 7 days
  • Water Temperature
  • Satellite Maps
  • Weather Map
  • Weather Widgets
  • user-avatar
    Login

    Hourly Weather Belyy Yu

    Today, 19 June, Tuesday

    Time Temperature Precipitation Wind Pressure Humidity
    00:00 +10°C° 0 mm 3 mps 755 mmHg 87%
    01:00 +9°C° 0 mm 3 mps 755 mmHg 90%
    02:00 +8°C° 0 mm 3 mps 755 mmHg 88%
    03:00 +8°C° 0 mm 3 mps 755 mmHg 86%
    04:00 +8°C° 0 mm 3 mps 754 mmHg 83%
    05:00 +9°C° 0 mm 3 mps 754 mmHg 78%
    06:00 +10°C° 0 mm 3 mps 754 mmHg 72%
    07:00 +11°C° 0 mm 3 mps 754 mmHg 67%
    08:00 +12°C° 0 mm 3 mps 753 mmHg 62%
    09:00 +13°C° 0 mm 4 mps 753 mmHg 56%
    10:00 +15°C° 0 mm 4 mps 753 mmHg 48%
    11:00 +18°C° 0 mm 4 mps 752 mmHg 45%
    12:00 +19°C° 0 mm 4 mps 752 mmHg 41%
    13:00 +20°C° 0 mm 4 mps 751 mmHg 38%
    14:00 +20°C° 0 mm 4 mps 751 mmHg 37%
    15:00 +21°C° 0 mm 4 mps 751 mmHg 36%
    16:00 +21°C° 0 mm 4 mps 750 mmHg 35%
    17:00 +21°C° 0 mm 3 mps 750 mmHg 37%
    18:00 +20°C° 0 mm 3 mps 750 mmHg 39%
    19:00 +20°C° 0 mm 3 mps 749 mmHg 42%
    20:00 +18°C° 0 mm 3 mps 749 mmHg 51%
    21:00 +16°C° 0 mm 2 mps 749 mmHg 59%
    22:00 +14°C° 0 mm 2 mps 749 mmHg 68%
    23:00 +13°C° 0 mm 2 mps 748 mmHg 75%

    Tomorrow, 20 June, Wednesday

    Time Temperature Precipitation Wind Pressure Humidity
    00:00 +10°C° 0 mm 2 mps 748 mmHg 81%
    01:00 +9°C° 0 mm 2 mps 748 mmHg 88%
    02:00 +9°C° 0 mm 2 mps 747 mmHg 87%
    03:00 +10°C° 0 mm 1 mps 747 mmHg 87%
    04:00 +10°C° 0 mm 1 mps 746 mmHg 86%
    05:00 +12°C° 0 mm 1 mps 746 mmHg 78%
    06:00 +13°C° 0 mm 1 mps 745 mmHg 71%
    07:00 +15°C° 0 mm 1 mps 745 mmHg 64%
    08:00 +18°C° 0 mm 1 mps 744 mmHg 57%
    09:00 +20°C° 0 mm 1 mps 743 mmHg 50%
    10:00 +20°C° 0 mm 0 mps 743 mmHg 44%
    11:00 +23°C° 0 mm 1 mps 742 mmHg 40%
    12:00 +24°C° 0 mm 1 mps 742 mmHg 37%
    13:00 +25°C° 0 mm 1 mps 741 mmHg 34%
    14:00 +25°C° 0 mm 1 mps 740 mmHg 33%
    15:00 +25°C° 0 mm 1 mps 740 mmHg 32%
    16:00 +25°C° 0 mm 1 mps 739 mmHg 31%
    17:00 +25°C° 0 mm 1 mps 739 mmHg 32%
    18:00 +24°C° 0 mm 2 mps 738 mmHg 33%
    19:00 +24°C° 0 mm 2 mps 738 mmHg 34%
    20:00 +21°C° 0 mm 2 mps 737 mmHg 42%
    21:00 +19°C° 0 mm 2 mps 737 mmHg 49%
    22:00 +17°C° 0 mm 2 mps 737 mmHg 56%
    23:00 +16°C° 0 mm 2 mps 737 mmHg 60%

    Day after tomorrow, 21 June, Thursday

    Time Temperature Precipitation Wind Pressure Humidity
    00:00 +15°C° 0 mm 2 mps 737 mmHg 64%
    01:00 +14°C° 0 mm 2 mps 736 mmHg 68%
    02:00 +14°C° 0 mm 2 mps 736 mmHg 69%
    03:00 +14°C° 0 mm 2 mps 736 mmHg 69%
    04:00 +15°C° 0 mm 2 mps 736 mmHg 69%
    05:00 +17°C° 0 mm 2 mps 736 mmHg 63%
    06:00 +19°C° 0 mm 2 mps 736 mmHg 56%
    07:00 +21°C° 0 mm 2 mps 736 mmHg 50%
    08:00 +23°C° 0 mm 2 mps 736 mmHg 44%
    09:00 +25°C° 0 mm 2 mps 736 mmHg 37%
    10:00 +26°C° 0 mm 2 mps 736 mmHg 31%
    11:00 +27°C° 0 mm 2 mps 736 mmHg 30%
    12:00 +28°C° 0 mm 3 mps 736 mmHg 29%
    13:00 +28°C° 0 mm 3 mps 737 mmHg 27%
    14:00 +28°C° 0 mm 3 mps 737 mmHg 28%
    15:00 +28°C° 0 mm 3 mps 737 mmHg 28%
    16:00 +28°C° 0 mm 3 mps 737 mmHg 28%
    17:00 +28°C° 0 mm 3 mps 738 mmHg 30%
    18:00 +27°C° 0 mm 3 mps 738 mmHg 33%
    19:00 +26°C° 0 mm 3 mps 738 mmHg 35%
    20:00 +25°C° 0 mm 3 mps 738 mmHg 41%
    21:00 +23°C° 0 mm 2 mps 739 mmHg 47%
    22:00 +20°C° 0 mm 2 mps 739 mmHg 53%
    23:00 +18°C° 0 mm 2 mps 740 mmHg 58%

    22 June, Friday

    Time Temperature Precipitation Wind Pressure Humidity
    00:00 +17°C° 0 mm 2 mps 740 mmHg 63%
    01:00 +16°C° 0 mm 2 mps 740 mmHg 67%
    02:00 +16°C° 0 mm 2 mps 740 mmHg 68%
    03:00 +16°C° 0 mm 2 mps 741 mmHg 68%
    04:00 +16°C° 0 mm 2 mps 741 mmHg 69%
    05:00 +17°C° 0 mm 2 mps 742 mmHg 63%
    06:00 +18°C° 0 mm 3 mps 742 mmHg 58%
    07:00 +19°C° 0 mm 3 mps 742 mmHg 53%
    08:00 +20°C° 0 mm 3 mps 743 mmHg 49%
    09:00 +21°C° 0 mm 4 mps 743 mmHg 45%
    10:00 +22°C° 0 mm 4 mps 743 mmHg 41%
    11:00 +22°C° 0 mm 4 mps 744 mmHg 40%
    12:00 +23°C° 0 mm 4 mps 744 mmHg 39%
    13:00 +25°C° 0 mm 4 mps 744 mmHg 38%
    14:00 +25°C° 0 mm 4 mps 745 mmHg 38%
    15:00 +25°C° 0 mm 4 mps 745 mmHg 39%
    16:00 +25°C° 0 mm 4 mps 745 mmHg 39%
    17:00 +23°C° 0 mm 4 mps 746 mmHg 42%
    18:00 +23°C° 0 mm 4 mps 746 mmHg 46%
    19:00 +22°C° 0 mm 4 mps 747 mmHg 49%
    20:00 +20°C° 0 mm 3 mps 747 mmHg 55%
    21:00 +19°C° 0 mm 3 mps 747 mmHg 61%
    22:00 +17°C° 0 mm 2 mps 748 mmHg 67%
    23:00 +16°C° 0 mm 2 mps 748 mmHg 71%

    23 June, Saturday

    Time Temperature Precipitation Wind Pressure Humidity
    00:00 +15°C° 0 mm 2 mps 749 mmHg 74%
    01:00 +14°C° 0 mm 2 mps 749 mmHg 77%
    02:00 +14°C° 0 mm 2 mps 749 mmHg 77%
    03:00 +13°C° 0 mm 2 mps 750 mmHg 77%
    04:00 +13°C° 0 mm 2 mps 750 mmHg 76%
    05:00 +14°C° 0 mm 2 mps 750 mmHg 72%
    06:00 +15°C° 0 mm 2 mps 750 mmHg 67%
    07:00 +16°C° 0 mm 2 mps 750 mmHg 63%
    08:00 +18°C° 0 mm 2 mps 750 mmHg 58%
    09:00 +20°C° 0 mm 2 mps 750 mmHg 52%
    10:00 +23°C° 0 mm 2 mps 750 mmHg 47%
    11:00 +24°C° 0 mm 2 mps 750 mmHg 43%
    12:00 +25°C° 0 mm 2 mps 750 mmHg 40%
    13:00 +26°C° 0 mm 2 mps 750 mmHg 36%
    14:00 +27°C° 0 mm 2 mps 750 mmHg 35%
    15:00 +27°C° 0 mm 2 mps 750 mmHg 33%
    16:00 +28°C° 0 mm 2 mps 750 mmHg 32%
    17:00 +27°C° 0 mm 2 mps 750 mmHg 36%
    18:00 +26°C° 0 mm 1 mps 751 mmHg 39%
    19:00 +25°C° 0 mm 1 mps 751 mmHg 43%
    20:00 +21°C° 0 mm 0 mps 751 mmHg 47%
    21:00 +20°C° 0 mm 0 mps 751 mmHg 51%
    22:00 +18°C° 0 mm 0 mps 751 mmHg 55%
    23:00 +18°C° 0 mm 0 mps 751 mmHg 56%

    24 June, Sunday

    Time Temperature Precipitation Wind Pressure Humidity
    00:00 +17°C° 0 mm 0 mps 751 mmHg 58%
    01:00 +19°C° 0 mm 1 mps 751 mmHg 59%
    02:00 +19°C° 0.1 mm 1 mps 751 mmHg 61%
    03:00 +19°C° 0.1 mm 1 mps 751 mmHg 63%
    04:00 +19°C° 0.1 mm 1 mps 751 mmHg 65%
    05:00 +20°C° 0.2 mm 1 mps 751 mmHg 64%
    06:00 +20°C° 0.2 mm 1 mps 751 mmHg 64%
    07:00 +21°C° 0.2 mm 1 mps 751 mmHg 63%
    08:00 +23°C° 0 mm 1 mps 751 mmHg 58%
    09:00 +25°C° 0 mm 2 mps 751 mmHg 52%
    10:00 +26°C° 0 mm 2 mps 751 mmHg 47%
    11:00 +28°C° 0 mm 2 mps 751 mmHg 45%
    12:00 +29°C° 0 mm 2 mps 751 mmHg 44%
    13:00 +30°C° 0 mm 2 mps 751 mmHg 42%
    14:00 +30°C° 0 mm 2 mps 751 mmHg 43%
    15:00 +30°C° 0 mm 1 mps 751 mmHg 45%
    16:00 +30°C° 0 mm 1 mps 751 mmHg 46%
    17:00 +30°C° 0 mm 1 mps 751 mmHg 48%
    18:00 +29°C° 0 mm 1 mps 750 mmHg 49%
    19:00 +29°C° 0 mm 1 mps 750 mmHg 51%
    20:00 +27°C° 0.5 mm 1 mps 750 mmHg 59%
    21:00 +25°C° 0.5 mm 1 mps 750 mmHg 67%
    22:00 +24°C° 0.5 mm 2 mps 750 mmHg 75%
    23:00 +23°C° 1.2 mm 2 mps 750 mmHg 81%
    Show more